AZA148 LIML-EBBR

Flight info

Callsign AZA148
Flight time N/A
Altitude 34000
Route SRN6AXARLES2A/35 ARLES DCT PUNSA DCT VADEM DCT GILIR DCT PENDU DCT IXILU DCT EPL DCT ROUSY DCT DIK Y37 BATTY
Aircraft A320/M-SDE3FGHIRWY/LB1

Departure

Time N/A
Airport Milano Linate Airport (LIML)

Arrival

Time 2026-05-03 21:07
Airport Brussels Airport (EBBR)
Time Latitude Longitude Altitude Speed Heading
2026-05-03 20:15 46.34612 7.39511 34083 ft 411 kts 297°
2026-05-03 20:15 46.37567 7.32436 34081 ft 410 kts 297°
2026-05-03 20:16 46.40514 7.25365 34080 ft 409 kts 297°
2026-05-03 20:16 46.43446 7.18299 34072 ft 409 kts 297°
2026-05-03 20:17 46.46383 7.11224 34064 ft 409 kts 297°
2026-05-03 20:17 46.49324 7.04149 34061 ft 409 kts 297°
2026-05-03 20:18 46.52257 6.97070 34056 ft 409 kts 296°
2026-05-03 20:18 46.55159 6.90024 34052 ft 409 kts 296°
2026-05-03 20:19 46.58074 6.82926 34067 ft 409 kts 296°
2026-05-03 20:19 46.60988 6.75824 34055 ft 409 kts 296°
2026-05-03 20:20 46.63901 6.68699 34049 ft 409 kts 296°
2026-05-03 20:20 46.66803 6.61568 34045 ft 409 kts 296°
2026-05-03 20:21 46.69701 6.54430 34041 ft 410 kts 297°
2026-05-03 20:21 46.73480 6.48107 34060 ft 422 kts 316°
2026-05-03 20:21 46.75933 6.45711 34047 ft 429 kts 327°
2026-05-03 20:22 46.78585 6.43811 34042 ft 431 kts 329°
2026-05-03 20:22 46.83999 6.39963 34039 ft 432 kts 328°
2026-05-03 20:23 46.89403 6.36091 34027 ft 433 kts 328°
2026-05-03 20:23 46.94810 6.32198 34027 ft 433 kts 328°
2026-05-03 20:24 47.00236 6.28299 34026 ft 434 kts 328°
2026-05-03 20:24 47.05661 6.24408 34021 ft 435 kts 328°
2026-05-03 20:25 47.11102 6.20495 34014 ft 435 kts 328°
2026-05-03 20:25 47.16538 6.16569 34020 ft 435 kts 328°
2026-05-03 20:26 47.21980 6.12630 34018 ft 436 kts 328°
2026-05-03 20:26 47.27426 6.08690 34004 ft 437 kts 329°
2026-05-03 20:27 47.32956 6.04936 33999 ft 442 kts 337°
2026-05-03 20:27 47.39011 6.03347 33998 ft 452 kts 356°
2026-05-03 20:28 47.45313 6.03472 34005 ft 453 kts 357°
2026-05-03 20:28 47.51618 6.03633 34007 ft 453 kts 357°
2026-05-03 20:29 47.57909 6.03781 34009 ft 453 kts 357°
2026-05-03 20:29 47.64221 6.03912 34005 ft 452 kts 357°
2026-05-03 20:30 47.70511 6.04055 34022 ft 452 kts 358°
2026-05-03 20:30 47.76796 6.04212 34020 ft 451 kts 358°
2026-05-03 20:31 47.83028 6.04408 34011 ft 451 kts 358°
2026-05-03 20:31 47.89297 6.04614 34020 ft 450 kts 358°
2026-05-03 20:32 47.95558 6.04808 34009 ft 450 kts 358°
2026-05-03 20:32 48.01818 6.04998 34008 ft 449 kts 358°
2026-05-03 20:33 48.08067 6.05194 34023 ft 449 kts 358°
2026-05-03 20:33 48.14281 6.05392 34014 ft 449 kts 358°
2026-05-03 20:34 48.20528 6.05591 34008 ft 449 kts 358°
2026-05-03 20:34 48.26785 6.05796 34011 ft 449 kts 358°
2026-05-03 20:35 48.33038 6.05991 34013 ft 449 kts 358°
2026-05-03 20:35 48.39300 6.06247 34009 ft 450 kts 358°
2026-05-03 20:36 48.45564 6.06565 34005 ft 450 kts 358°
2026-05-03 20:36 48.51837 6.06892 34019 ft 450 kts 358°
2026-05-03 20:37 48.58069 6.07186 34039 ft 451 kts 358°
2026-05-03 20:37 48.64341 6.07470 34027 ft 451 kts 357°
2026-05-03 20:38 48.70605 6.07767 34018 ft 450 kts 357°
2026-05-03 20:38 48.76877 6.08073 34012 ft 450 kts 357°
2026-05-03 20:39 48.83139 6.08375 34005 ft 450 kts 357°
2026-05-03 20:39 48.89401 6.08671 34008 ft 450 kts 357°
2026-05-03 20:40 48.95667 6.08974 34025 ft 450 kts 357°
2026-05-03 20:40 49.01916 6.09271 34018 ft 450 kts 357°
2026-05-03 20:41 49.08143 6.09567 34011 ft 450 kts 357°
2026-05-03 20:41 49.14403 6.09870 34014 ft 450 kts 357°
2026-05-03 20:42 49.20666 6.10177 33999 ft 450 kts 357°
2026-05-03 20:42 49.26925 6.10483 33985 ft 450 kts 357°
2026-05-03 20:43 49.33176 6.10790 33985 ft 450 kts 358°
2026-05-03 20:43 49.39436 6.11105 34004 ft 450 kts 357°
2026-05-03 20:44 49.45691 6.11410 33995 ft 450 kts 357°
2026-05-03 20:44 49.51950 6.11681 33988 ft 450 kts 357°
2026-05-03 20:45 49.57156 6.11880 33986 ft 450 kts 356°
2026-05-03 20:45 49.63432 6.12110 33666 ft 452 kts 357°
2026-05-03 20:45 49.66582 6.12229 33392 ft 452 kts 357°
2026-05-03 20:46 49.69728 6.12349 33119 ft 451 kts 357°
2026-05-03 20:46 49.72865 6.12468 32851 ft 449 kts 356°
2026-05-03 20:46 49.75983 6.12585 32584 ft 447 kts 356°
2026-05-03 20:46 49.79054 6.12701 32323 ft 446 kts 356°
2026-05-03 20:47 49.82127 6.12821 31889 ft 442 kts 356°
2026-05-03 20:47 49.85198 6.12845 31346 ft 435 kts 349°
2026-05-03 20:47 49.88126 6.11977 30752 ft 423 kts 335°
2026-05-03 20:47 49.90752 6.10070 30139 ft 412 kts 322°
2026-05-03 20:48 49.93190 6.07745 29444 ft 411 kts 321°
2026-05-03 20:48 49.95617 6.05387 28745 ft 411 kts 321°
2026-05-03 20:48 49.98030 6.03024 28066 ft 410 kts 321°
2026-05-03 20:48 50.00438 6.00660 27410 ft 409 kts 321°
2026-05-03 20:49 50.02839 5.98299 26752 ft 408 kts 322°
2026-05-03 20:49 50.05235 5.95948 26203 ft 405 kts 322°
2026-05-03 20:49 50.07599 5.93632 25874 ft 397 kts 322°
2026-05-03 20:49 50.09927 5.91345 25389 ft 394 kts 322°
2026-05-03 20:50 50.12240 5.89071 24920 ft 391 kts 322°
2026-05-03 20:50 50.14538 5.86809 24424 ft 389 kts 322°
2026-05-03 20:50 50.16824 5.84556 23935 ft 387 kts 322°
2026-05-03 20:50 50.19095 5.82315 23403 ft 386 kts 323°
2026-05-03 20:51 50.21356 5.80081 22883 ft 383 kts 323°
2026-05-03 20:51 50.23599 5.77862 22375 ft 380 kts 323°
2026-05-03 20:51 50.25795 5.75690 21890 ft 377 kts 323°
2026-05-03 20:51 50.28006 5.73500 21410 ft 374 kts 323°
2026-05-03 20:52 50.30198 5.71328 20910 ft 372 kts 323°
2026-05-03 20:52 50.32381 5.69162 20434 ft 370 kts 323°
2026-05-03 20:52 50.34543 5.67015 19960 ft 367 kts 323°
2026-05-03 20:52 50.36696 5.64873 19489 ft 365 kts 323°
2026-05-03 20:53 50.38833 5.62746 19022 ft 364 kts 323°
2026-05-03 20:53 50.40965 5.60623 18564 ft 362 kts 323°
2026-05-03 20:53 50.43083 5.58508 18077 ft 360 kts 323°
2026-05-03 20:53 50.45191 5.56397 17607 ft 357 kts 323°
2026-05-03 20:54 50.47279 5.54305 17155 ft 354 kts 324°
2026-05-03 20:54 50.51403 5.50178 16268 ft 349 kts 324°
2026-05-03 20:54 50.53443 5.48131 15848 ft 347 kts 323°
2026-05-03 20:55 50.55473 5.46092 15415 ft 345 kts 323°
2026-05-03 20:55 50.57486 5.44071 14984 ft 342 kts 323°
2026-05-03 20:55 50.59489 5.42056 14561 ft 340 kts 324°
2026-05-03 20:55 50.61480 5.40053 14139 ft 339 kts 324°
2026-05-03 20:56 50.63457 5.38064 13722 ft 337 kts 324°
2026-05-03 20:56 50.65426 5.36079 13271 ft 334 kts 324°
2026-05-03 20:56 50.67375 5.34111 12839 ft 330 kts 324°
2026-05-03 20:56 50.69276 5.32187 12440 ft 327 kts 324°
2026-05-03 20:57 50.71167 5.30273 12292 ft 315 kts 323°
2026-05-03 20:57 50.72985 5.28430 12087 ft 307 kts 323°
2026-05-03 20:57 50.74771 5.26613 11744 ft 304 kts 323°
2026-05-03 20:57 50.76541 5.24808 11384 ft 302 kts 323°
2026-05-03 20:58 50.78293 5.23022 10842 ft 298 kts 323°
2026-05-03 20:58 50.80033 5.21247 10154 ft 296 kts 324°
2026-05-03 20:58 50.81746 5.19498 9560 ft 290 kts 324°
2026-05-03 20:58 50.83439 5.17770 9133 ft 289 kts 324°
2026-05-03 20:59 50.85124 5.16052 8717 ft 288 kts 324°
2026-05-03 20:59 50.86789 5.14294 8292 ft 286 kts 318°
2026-05-03 20:59 50.88181 5.12096 7888 ft 280 kts 304°
2026-05-03 20:59 50.89241 5.09559 7496 ft 276 kts 298°
2026-05-03 21:00 50.90267 5.06994 7091 ft 274 kts 299°
2026-05-03 21:00 50.90944 5.05305 6814 ft 274 kts 299°
2026-05-03 21:00 50.92301 5.01934 6253 ft 273 kts 299°
2026-05-03 21:00 50.93318 4.99402 5798 ft 272 kts 299°
2026-05-03 21:01 50.94330 4.96876 5354 ft 271 kts 299°
2026-05-03 21:01 50.95337 4.94358 4977 ft 267 kts 299°
2026-05-03 21:01 50.96308 4.91940 4902 ft 252 kts 299°
2026-05-03 21:01 50.97140 4.89614 4834 ft 234 kts 288°
2026-05-03 21:02 50.97480 4.87183 4655 ft 221 kts 269°
2026-05-03 21:02 50.97311 4.84823 4408 ft 212 kts 251°
2026-05-03 21:02 50.96823 4.82646 4138 ft 208 kts 248°
2026-05-03 21:02 50.96338 4.80505 3861 ft 205 kts 248°
2026-05-03 21:03 50.95858 4.78388 3588 ft 203 kts 249°
2026-05-03 21:03 50.95380 4.76289 3323 ft 201 kts 248°
2026-05-03 21:03 50.94907 4.74212 3059 ft 200 kts 248°
2026-05-03 21:03 50.94435 4.72144 2789 ft 199 kts 248°
2026-05-03 21:04 50.93973 4.70117 2531 ft 191 kts 248°
2026-05-03 21:04 50.93535 4.68201 2336 ft 178 kts 248°
2026-05-03 21:04 50.93128 4.66421 2089 ft 165 kts 248°
2026-05-03 21:04 50.92751 4.64771 1856 ft 153 kts 248°
2026-05-03 21:05 50.92403 4.63250 1669 ft 140 kts 247°
2026-05-03 21:05 50.92084 4.61860 1492 ft 131 kts 247°
2026-05-03 21:05 50.91776 4.60520 1314 ft 128 kts 247°
2026-05-03 21:05 50.91472 4.59198 1136 ft 127 kts 247°
2026-05-03 21:06 50.91171 4.57887 962 ft 128 kts 247°
2026-05-03 21:06 50.90864 4.56552 771 ft 129 kts 248°
2026-05-03 21:06 50.90554 4.55208 601 ft 131 kts 248°
2026-05-03 21:06 50.90244 4.53853 409 ft 131 kts 249°
2026-05-03 21:07 50.89936 4.52499 242 ft 130 kts 248°
2026-05-03 21:07 50.89639 4.51225 174 ft 104 kts 250°
2026-05-03 21:07 50.89452 4.50409 176 ft 54 kts 250°
2026-05-03 21:07 50.89362 4.50019 177 ft 33 kts 250°
2026-05-03 21:08 50.89349 4.49717 176 ft 21 kts 295°
2026-05-03 21:08 50.89409 4.49590 168 ft 11 kts 308°
2026-05-03 21:08 50.89457 4.49491 165 ft 12 kts 307°
2026-05-03 21:08 50.89510 4.49382 164 ft 13 kts 307°
2026-05-03 21:09 50.89570 4.49255 157 ft 16 kts 314°
2026-05-03 21:09 50.89682 4.49274 150 ft 18 kts 16°
2026-05-03 21:09 50.89819 4.49333 142 ft 23 kts 15°
2026-05-03 21:09 50.89989 4.49404 132 ft 27 kts 14°
2026-05-03 21:10 50.90150 4.49466 125 ft 23 kts 14°
2026-05-03 21:10 50.90315 4.49535 124 ft 21 kts 14°
2026-05-03 21:10 50.90408 4.49451 122 ft 16 kts 300°
2026-05-03 21:10 50.90398 4.49305 124 ft 12 kts 244°
2026-05-03 21:11 50.90359 4.49176 123 ft 14 kts 245°
2026-05-03 21:11 50.90318 4.49028 121 ft 14 kts 247°
2026-05-03 21:11 50.90277 4.48890 122 ft 14 kts 245°
2026-05-03 21:11 50.90234 4.48740 122 ft 16 kts 245°
2026-05-03 21:12 50.90201 4.48627 121 ft 2 kts 245°
2026-05-03 21:12 50.90194 4.48598 123 ft 5 kts 248°
2026-05-03 21:12 50.90207 4.48557 122 ft 5 kts 319°
2026-05-03 21:12 50.90249 4.48528 121 ft 3 kts 335°
2026-05-03 21:13 50.90259 4.48520 121 ft 0 kts 335°